Baryon-photon ratio
(Preview)
Physics News
0
697
Using the baryon-photon ratio to calculate the primordial abundances of baryonic matter: The photon density = 3.7 x 102/cm-3 Baryon density = (Universe mass density)/Mass_Proton = 4.2 x 10-31 g cm-3 / 1.66 x 10-24 g = ~2.5 x 10-7 Baryon density / photon density = 2.5 x 10-7 / 3.7 x 102 = ~6.7 x 10-10 For ev...
Sun 10.09.15
(Preview)
Solar 2015
0
571
Why Aurora is Everywhere Today: Solar Storm News 09-10-2015 Spoiler
Chang'e-4
(Preview)
Space missions
1
1297
China aims to be first to land on 'dark side' of moon China is planning to land its Chang'e-4 probe on the moon's "dark side", which has never before been explored, Wu Weiren, the chief engineer for China's Lunar Exploration Program told Chinese Central Television. Read more
September 10th
(Preview)
September
8
3643
Meteorite falls http://astronomy.activeboard.com/t54913657/ridgecrest-meteorite/
Comet P/2015 Q2 (Pimentel)
(Preview)
Comets 2015
1
1531
Comet P/2015 Q2 (Pimentel) makes its closest approach to the Earth (1.072 AU) in the constellation Eridanus on the 9th September 2015 Comet P/2015 Q2 (Pimentel) is at Opposition (1.072 AU) on the 9th Ephemeris Date UT R.A. (J2000) Decl. Delta r El. Ph. Mag
2015 09 08 000000 02 01 08.2 -51 13 17 1.075 1....
Comet P/2015 P4 (PANSTARRS)
(Preview)
Comets 2015
0
1672
Comet P/2015 P4 (PANSTARRS) is at Opposition (1.750 AU) in the constellation Aquarius on the 10th September 2015. Ephemeris Date UT R.A. (J2000) Decl. Delta r El. Ph. Mag
2015 09 09 000000 23 32 44.5 -16 09 39 1.753 2.746 167.8 4.5 19.6
2015 09 10 000000 23 32 14.1 -16 15 16 1.750 2.743 167.8 4.4 19.6
20...
Comet P/2014 O3 (PANSTARRS)
(Preview)
Comets 2015
0
1219
Comet P/2014 O3 (PANSTARRS) is at Opposition (4.257 AU) in the constellation Aquarius on the 10th September 2015. Ephemeris Date TT R. A. (2000) Decl. Delta r Elong. Phase Mag
2015 09 10 23 24 24.7 -14 08 09 4.2532 5.2492 170.5 1.8 20.8
2015 09 11 23 23 58.0 -14 11 01 4.2559 5.2514 170.4 1.8 20.8
2015 09...
Asteroid 2012 SZ2
(Preview)
Asteroids 2012
1
1212
Orbital elements:
2012 SZ2 Earth MOID = 0.0164 AU
Epoch 2012 Sept. 30.0 TT = JDT 2456200.5 MPC
M 338.05216 (2000.0) P Q
n 0.66259090 Peri. 231.92172 +0.68317666 -0.72975262
a 1.3030840 Node 174.73393 +0.72755379 +0.67700480
e 0.2801387 Incl. 17.12975 +0.06273072 +0.09552809
P 1.49 H 25....
Asteroid (201) Penelope
(Preview)
Asteroids
2
1382
Asteroid (201) Penelope is a large Main belt asteroid. It is classified as a M-type asteroid. It was discovered by Johann Palisa on August 7, 1879 in Pola. Read more Ephemeris Date UT R.A. (J2000) Decl. Delta r El. Ph. V
2011 09 19 000000 03...
V830 Tauri
(Preview)
Stars
0
422
Hot Jupiters courting baby stars? Although first detected 20 years ago, hot Jupiters are still enigmatic bodies. These celestial objects are giant Jupiter-like exoplanets that orbit 20 times closer to their host stars than the Earth does to the Sun. Using the ESPaDOnS spectro-polarimeter on the...
EGS8p7
(Preview)
Galaxies
0
326
Farthest Galaxy Detected A team of Caltech researchers that has spent years searching for the earliest objects in the universe now reports the detection of what may be the most distant galaxy ever found. Read more
Sailing ship Neva
(Preview)
Off Topic
0
819
Archaeologists piece together how crew survived 1813 shipwreck in Alaska Working closely with the U.S. Forest Service and the Sitka Tribe of Alaska, an international team of researchers funded by the National Science Foundation has begun to piece together an archaeological and historical narr...
Star trek
(
1 2 3 4 5 … 12
)
(Preview)
Audio Visual
113
37791
Hum,
There's going to be a giant, official Star Trek auction featuring lots from every Star Trek series and movies.
The memorabilia up for grabs includes a pair of phaser guns, a detailed model of the Starship Enterprise, and a replica of Captain Kirk's chair built for an episode of De...
September 9th
(Preview)
September
8
3818
Meteorites http://astronomy.activeboard.com/t44888100/krasnoi-ugol-meteorite/
Comet P/2012 K1 (PANSTARRS)
(Preview)
Comets
9
3120
Orbital elements:
C/2012 K1 (PANSTARRS)
T 2015 Apr. 10.07879 TT MPC
q 2.7419925 (2000.0) P Q
Peri. 177.59391 -0.75182010 +0.50637580
Node 316.87790 +0.59417308 +0.79797630
e 1.0 Incl. 141.84278 +0.28587564 -0.32682929
From 22 observations 2012 May 17-20. MPEC 2012 - K36 Comet P/2012...
«First < 1
274 275 276 277 278
2461 > Last» | Page
